Regional Weather Roundup
Issued by NWS

Home | Current Version | Previous Version | Graphics & Text | Print | Product List | Glossary On
Versions: 1 2 3 4 5 6 7 8 9 10 11 12 13 14 15 16 17 18 19 20 21 22 23 24 25 26 27 28 29 30 31 32 33 34 35 36 37 38 39 40 41 42 43 44 45 46 47 48 49 50
000
ASUS45 KABQ 201001
RWRNM
WEATHER ROUNDUP FOR NEW MEXICO
NATIONAL WEATHER SERVICE ALBUQUERQUE NM
400 AM MDT SUN APR 20 2014

NOTE: "FAIR" MEANS FEW OR NO CLOUDS BELOW 12,000 FEET AGL WITH NO
       SIGNIFICANT WEATHER OR OBSTRUCTIONS TO VISION.

      THIS PRODUCT IS RELEASED AS TWO VERSIONS.  ONE VERSION NEAR
      THE TOP OF THE HOUR CONTAINING PRELIMINARY DATA FROM ALBUQUERQUE
      AND OTHER STATIONS.  A FINAL VERSION WITH ADDITIONAL DATA IS
      ISSUED ABOUT 10 MINUTES AFTER THE HOUR.

NMZ501-503-504-510>518-201100-
NORTHWEST PLATEAU/NORTHCENTRAL MOUNTAINS

CITY           SKY/WX    TMP DP  RH WIND       PRES   REMARKS
FARMINGTON     CLEAR     48  33  56 W5        30.09R
SANTA FE       CLOUDY    46  44  93 SW5       30.11F
TAOS           CLOUDY    45  39  81 E7        30.17F
ANGEL FIRE     CLOUDY    40  36  84 CALM      30.18S

$$
NMZ402-403-502-505>509-201100-
WESTCENTRAL MOUNTAINS/SOUTHWEST MOUNTAINS

CITY           SKY/WX    TMP DP  RH WIND       PRES   REMARKS
GALLUP         FAIR      39  35  86 CALM      30.18S
SILVER CITY    FAIR      45  41  87 N8        30.17S

$$
NMZ407-409-411-412-201100-
SOUTHERN DESERTS

CITY           SKY/WX    TMP DP  RH WIND       PRES   REMARKS
LORDSBURG      FAIR      48  45  87 S3        30.12S
DEMING         FAIR      47  46  97 S3        30.12S
HOLLOMAN AFB   PTCLDY    46  45  99 E5        30.10S
ALAMOGORDO     PTCLDY    45  45 100 CALM      30.12S
T OR C         LGT RAIN  52  49  89 S8        30.11S

$$
NMZ519>523-201100-
CENTRAL VALLEYS/CENTRAL HIGHLANDS

CITY           SKY/WX    TMP DP  RH WIND       PRES   REMARKS
ALBUQUERQUE    MOCLDY    48  45  89 SE3       30.12S
DOUBLE EAGLE   PTCLDY    41  40  97 S3        30.13S
MORIARTY ARPT  FAIR      45  40  83 CALM      30.13S
CLINES CORNERS CLOUDY    43  40  89 NW12      30.11S
BELEN          CLOUDY    49  47  95 S3        30.11S
SOCORRO        NOT AVBL

$$
NMZ524>526-539-540-201100-
SOUTHCENTRAL MOUNTAINS

CITY           SKY/WX    TMP DP  RH WIND       PRES   REMARKS
RUIDOSO        NOT AVBL

$$
NMZ527>531-201100-
NORTHEAST HIGHLANDS/NORTHEAST PLAINS

CITY           SKY/WX    TMP DP  RH WIND       PRES   REMARKS
LAS VEGAS      CLOUDY    44  39  82 NW3       30.09S
RATON          MOCLDY    50  41  71 N7G18     30.06R
CLAYTON        PTCLDY    50  46  86 SW10      30.03S

$$
NMZ532>537-201100-
EASTCENTRAL PLAINS

CITY           SKY/WX    TMP DP  RH WIND       PRES   REMARKS
TUCUMCARI      PTCLDY    53  48  83 SW16      30.02F
CANNON AFB     MOCLDY    50  46  86 SW13      30.08F
CLOVIS AIRPORT PTCLDY    48  45  87 S9        30.10S

$$
NMZ028-029-538-201100-
SOUTHEAST PLAINS

CITY           SKY/WX    TMP DP  RH WIND       PRES   REMARKS
ROSWELL        CLEAR     47  45  93 SE9       30.06S
ARTESIA        CLEAR     46  46 100 NE5       30.08R
CARLSBAD       PTCLDY    56  53  90 S9        30.05S
HOBBS          FOG       50  50 100 SW6       30.08S VSB 1/4


$$



USA.gov is the U.S. government's official web portal to all federal, state and local government web resources and services.